Grand Island, NE

4:49 PM CDT on October 20, 2017 (GMT -0500)
Central Nebraska Regional

Weather History for KGRI - July, 2014

Change the Weather History Date:

Saturday, July 26, 2014

  Actual Average Record
Temperature  
Mean Temperature 81 °F 76 °F  
Max Temperature 93 °F 87 °F 111 °F (1936)
Min Temperature 68 °F 65 °F 48 °F (1962)
Degree Days  
Heating Degree Days 0 0  
Month to date heating degree days 4 0  
Since 1 June heating degree days 14 24  
Since 1 July heating degree days 4 0  
Cooling Degree Days 16 11  
Month to date cooling degree days 239 295  
Year to date cooling degree days 608 573  
Since 1 June cooling degree days 489 508  
Growing Degree Days 33 (Base 50)    
Moisture  
Dew Point 73 °F    
Average Humidity 75    
Maximum Humidity 94    
Minimum Humidity 56    
Precipitation  
Precipitation 0.00 in 0.10 in 3.27 in (1905)
Month to date precipitation 2.06 2.87  
Year to date precipitation 16.20 17.12  
Snow  
Snow 0.00 in 0.00 in - ()
Month to date snowfall 0.0 0.0  
Since 1 June snowfall 0.0 0.0  
Since 1 July snowfall 0.0 0.0  
Snow Depth 0.00 in    
Sea Level Pressure  
Sea Level Pressure 29.85 in    
Wind  
Wind Speed 7 mph (NE)    
Max Wind Speed 18 mph    
Max Gust Speed 23 mph    
Visibility 6 miles    
Events Fog    
T = Trace of Precipitation, MM = Missing Value Source: NWS Daily Summary

Daily Weather History Graph

Daily Weather History Graph

Search for Another Location

Airport or City:

Trip Planner

Search our weather history database for the weather conditions in past years. The results will help you decide how hot, cold, wet, or windy it might be!

Date:

Astronomy

Jul. 26, 2014 Rise Set
Actual Time 6:23 AM CDT 8:55 PM CDT
Civil Twilight 5:52 AM CDT 9:26 PM CDT
Nautical Twilight 5:12 AM CDT 10:05 PM CDT
Astronomical Twilight 4:28 AM CDT 10:49 PM CDT
Moon 6:18 AM CDT (7/26) 8:30 PM CDT (7/26)
Length of Visible Light 15h 34m
Length of Day
14h 31m
Waning Crescent, 0% of the Moon is Illuminated
Jul 26
Waning Crescent
Jul 26
New
Aug 3
First Quarter
Aug 10
Full
Aug 17
Last Quarter

Hourly Weather History & Observations

Time (CDT) Temp. Heat Index Dew Point Humidity Pressure Visibility Wind Dir Wind Speed Gust Speed Precip Events Conditions
12:53 AM 77.0 °F - 72.0 °F 84% 29.80 in 9.0 mi Calm Calm - N/A   Clear
1:53 AM 73.9 °F - 71.1 °F 91% 29.77 in 6.0 mi ESE 4.6 mph - N/A   Clear
2:53 AM 75.0 °F - 72.0 °F 90% 29.76 in 7.0 mi ESE 4.6 mph - N/A   Clear
3:53 AM 75.9 °F - 73.0 °F 91% 29.77 in 5.0 mi ESE 4.6 mph - N/A   Clear
4:32 AM 73.0 °F - 71.1 °F 93% 29.85 in 3.0 mi Calm Calm - N/A   Scattered Clouds
4:43 AM 73.9 °F - 72.0 °F 93% 29.86 in 4.0 mi WSW 4.6 mph - N/A   Mostly Cloudy
4:53 AM 73.9 °F - 72.0 °F 93% 29.79 in 3.0 mi Calm Calm - N/A   Mostly Cloudy
5:22 AM 73.9 °F - 72.0 °F 93% 29.86 in 3.0 mi West 11.5 mph - N/A   Overcast
5:51 AM 75.2 °F - 71.6 °F 89% 29.86 in 4.0 mi NW 5.8 mph - N/A   Overcast
5:53 AM 75.0 °F - 72.0 °F 90% 29.81 in 4.0 mi WNW 5.8 mph - N/A   Overcast
6:40 AM 73.9 °F - 72.0 °F 93% 29.85 in 1.8 mi NNE 5.8 mph - N/A   Overcast
6:53 AM 73.9 °F - 72.0 °F 93% 29.80 in 1.8 mi NNE 4.6 mph - N/A   Overcast
7:19 AM 75.0 °F - 73.0 °F 94% 29.85 in 1.8 mi NE 4.6 mph - N/A   Overcast
7:44 AM 75.0 °F - 73.0 °F 94% 29.84 in 0.5 mi NNE 9.2 mph - N/A Fog Fog
7:53 AM 75.2 °F - 73.4 °F 94% 29.84 in 0.2 mi NE 8.1 mph - N/A Fog Fog
8:00 AM 75.0 °F - 73.9 °F 96% 29.85 in 0.2 mi ENE 6.9 mph - N/A Fog Fog
8:19 AM 75.9 °F - 73.9 °F 94% 29.86 in 0.5 mi East 8.1 mph - N/A Fog Fog
8:35 AM 75.9 °F - 73.9 °F 94% 29.87 in 1.0 mi SE 6.9 mph - N/A   Overcast
8:53 AM 77.0 °F - 73.9 °F 90% 29.82 in 2.5 mi SE 8.1 mph - N/A   Overcast
9:00 AM 77.0 °F - 75.0 °F 94% 29.87 in 4.0 mi SE 5.8 mph - N/A   Overcast
10:53 AM 81.0 °F 86.2 °F 73.9 °F 79% 29.82 in 7.0 mi SSE 5.8 mph - N/A   Overcast
11:22 AM 81.0 °F 86.2 °F 73.9 °F 79% 29.87 in 8.0 mi SSE 5.8 mph - N/A   Overcast
11:40 AM 82.0 °F 87.9 °F 73.9 °F 76% 29.87 in 9.0 mi SSE 5.8 mph - N/A   Overcast
12:15 PM 82.4 °F 89.5 °F 75.2 °F 79% 29.87 in 9.0 mi South 5.8 mph - N/A   Overcast
1:07 PM 88.0 °F 96.5 °F 73.9 °F 63% 29.85 in 7.0 mi WSW 8.1 mph - N/A   Scattered Clouds
1:53 PM 90.0 °F 100.2 °F 75.0 °F 61% 29.83 in 10.0 mi WNW 9.2 mph - N/A   Clear
2:53 PM 91.0 °F 99.3 °F 73.0 °F 55% 29.83 in 10.0 mi Variable 3.5 mph - N/A   Clear
3:53 PM 91.0 °F 100.4 °F 73.9 °F 57% 29.82 in 10.0 mi Variable 4.6 mph - N/A   Clear
4:53 PM 87.8 °F 95.6 °F 73.4 °F 62% 29.89 in 10.0 mi NE 11.5 mph - N/A   Partly Cloudy
5:53 PM 87.1 °F 96.3 °F 75.0 °F 67% 29.84 in 10.0 mi ENE 11.5 mph - N/A   Clear
6:53 PM 87.1 °F 94.5 °F 73.0 °F 63% 29.86 in 10.0 mi North 9.2 mph - N/A   Clear
7:53 PM 84.9 °F 89.4 °F 70.0 °F 61% 29.87 in 10.0 mi North 6.9 mph - N/A   Partly Cloudy
8:53 PM 81.0 °F 84.9 °F 71.1 °F 72% 29.91 in 10.0 mi NNW 8.1 mph - N/A   Clear
9:53 PM 77.0 °F - 70.0 °F 79% 29.94 in 10.0 mi North 8.1 mph - N/A   Clear
10:53 PM 75.0 °F - 69.1 °F 82% 29.97 in 10.0 mi NNW 5.8 mph - N/A   Clear
11:53 PM 72.0 °F - 66.9 °F 84% 29.99 in 10.0 mi NNW 8.1 mph - N/A   Clear